Weather History for Corinth, MS

Change the Weather History Date:

Friday, November 2, 2012

  Actual Average Record
Temperature  
Mean Temperature 56 °F -  
Max Temperature 75 °F 70 °F 85 °F (1946)
Min Temperature 37 °F 46 °F 25 °F (1965)
Degree Days  
Heating Degree Days 9    
Growing Degree Days 6 (Base 50)    
Moisture  
Dew Point 42 °F    
Average Humidity 70    
Maximum Humidity 93    
Minimum Humidity 31    
Precipitation  
Precipitation 0.00 in - - ()
Sea Level Pressure  
Sea Level Pressure 29.99 in    
Wind  
Wind Speed 3 mph (SSE)    
Max Wind Speed 8 mph    
Max Gust Speed -    
Visibility 7 miles    
Events      
Averages and records for this station are not official NWS values.
T = Trace of Precipitation, MM = Missing Value Source: NWS Daily Summary

Daily Weather History Graph

Daily Weather History Graph

Search for Another Location

Airport:

Trip Planner

Search our weather history database for the weather conditions in past years. The results will help you decide how hot, cold, wet, or windy it might be!

Date:

Astronomy

Nov. 02, 2012 Rise Set
Actual Time 7:16 AM CDT 5:58 PM CDT
Civil Twilight 6:50 AM CDT 6:24 PM CDT
Nautical Twilight 6:20 AM CDT 6:54 PM CDT
Astronomical Twilight 5:50 AM CDT 7:24 PM CDT
Moon 8:50 PM CDT (11/2) 10:32 AM CDT (11/2)
Length of Visible Light 11h 34m
Length of Day
10h 42m
Waning Gibbous, 87% of the Moon is Illuminated
Nov 2
Waning Gibbous
Nov 6
Last Quarter
Nov 13
New
Nov 20
First Quarter
Nov 28
Full

Hourly Weather History & Observations

Time (CDT) Temp. Windchill Dew Point Humidity Pressure Visibility Wind Dir Wind Speed Gust Speed Precip Events Conditions
12:05 AM 41.0 °F 39.0 °F 37.4 °F 87% 29.98 in 7.0 mi SSE 3.5 mph - N/A   Clear
12:25 AM 41.0 °F 39.0 °F 37.4 °F 87% 29.99 in 5.0 mi SSE 3.5 mph - N/A   Clear
12:45 AM 39.2 °F 37.0 °F 37.4 °F 93% 29.98 in 6.0 mi South 3.5 mph - N/A   Clear
1:05 AM 39.2 °F 35.9 °F 37.4 °F 93% 29.98 in 6.0 mi SSE 4.6 mph - N/A   Clear
1:25 AM 39.2 °F 37.0 °F 37.4 °F 93% 29.97 in 7.0 mi SSE 3.5 mph - N/A   Clear
1:45 AM 39.2 °F - 37.4 °F 93% 29.97 in 6.0 mi Calm Calm - N/A   Clear
2:05 AM 39.2 °F - 37.4 °F 93% 29.97 in 6.0 mi Calm Calm - N/A   Clear
2:25 AM 39.2 °F - 37.4 °F 93% 29.97 in 5.0 mi Calm Calm - N/A   Clear
2:45 AM 37.4 °F - 35.6 °F 93% 29.97 in 5.0 mi Calm Calm - N/A   Clear
3:05 AM 39.2 °F - 35.6 °F 87% 29.97 in 4.0 mi Calm Calm - N/A   Clear
3:25 AM 39.2 °F 37.0 °F 37.4 °F 93% 29.97 in 5.0 mi SE 3.5 mph - N/A   Clear
3:45 AM 39.2 °F - 37.4 °F 93% 29.96 in 5.0 mi Calm Calm - N/A   Clear
4:05 AM 39.2 °F 37.0 °F 37.4 °F 93% 29.96 in 4.0 mi SSE 3.5 mph - N/A   Clear
4:25 AM 39.2 °F 37.0 °F 35.6 °F 87% 29.96 in 4.0 mi SE 3.5 mph - N/A   Clear
4:45 AM 39.2 °F 37.0 °F 37.4 °F 93% 29.97 in 5.0 mi SE 3.5 mph - N/A   Clear
5:05 AM 37.4 °F - 35.6 °F 93% 29.97 in 5.0 mi Calm Calm - N/A   Clear
5:25 AM 37.4 °F 34.9 °F 35.6 °F 93% 29.97 in 5.0 mi SSE 3.5 mph - N/A   Clear
5:45 AM 37.4 °F 34.9 °F 35.6 °F 93% 29.97 in 4.0 mi SSE 3.5 mph - N/A   Clear
6:05 AM 37.4 °F 34.9 °F 35.6 °F 93% 29.97 in 4.0 mi SSE 3.5 mph - N/A   Clear
6:25 AM 39.2 °F 37.0 °F 35.6 °F 87% 29.97 in 4.0 mi SE 3.5 mph - N/A   Clear
6:45 AM 39.2 °F 37.0 °F 35.6 °F 87% 29.97 in 4.0 mi SE 3.5 mph - N/A   Clear
7:05 AM 39.2 °F 37.0 °F 37.4 °F 93% 29.98 in 4.0 mi SE 3.5 mph - N/A   Clear
7:25 AM 39.2 °F - 37.4 °F 93% 29.98 in 3.0 mi Calm Calm - N/A   Clear
7:45 AM 39.2 °F - 37.4 °F 93% 29.99 in 3.0 mi Calm Calm - N/A   Clear
8:25 AM 44.6 °F 43.1 °F 41.0 °F 87% 30.01 in 3.0 mi SE 3.5 mph - N/A   Clear
8:45 AM 48.2 °F - 42.8 °F 82% 30.01 in 2.5 mi SE 4.6 mph - N/A   Haze
9:05 AM 50.0 °F - 44.6 °F 82% 30.01 in 3.0 mi Calm Calm - N/A   Haze
9:25 AM 53.6 °F - 44.6 °F 72% 30.02 in 3.0 mi Calm Calm - N/A   Haze
9:45 AM 57.2 °F - 46.4 °F 67% 30.02 in 4.0 mi Calm Calm - N/A   Haze
10:05 AM 62.6 °F - 48.2 °F 59% 30.02 in 7.0 mi North 3.5 mph - N/A   Clear
10:25 AM 64.4 °F - 48.2 °F 56% 30.02 in 9.0 mi NNW 8.1 mph - N/A   Clear
10:40 AM 64.4 °F - 48.2 °F 56% 30.02 in 10.0 mi NNW 6.9 mph - N/A   Clear
11:05 AM 66.2 °F - 46.4 °F 49% 30.02 in 1.0 mi NNW 4.6 mph - N/A   Haze
11:25 AM 68.0 °F - 46.4 °F 46% 30.02 in 2.0 mi NW 8.1 mph - N/A   Haze
11:45 AM 68.0 °F - 46.4 °F 46% 30.02 in 1.8 mi NW 5.8 mph - N/A   Haze
12:05 PM 69.8 °F - 44.6 °F 40% 30.01 in 5.0 mi NW 8.1 mph - N/A   Haze
12:25 PM 71.6 °F - 46.4 °F 41% 30.01 in 9.0 mi NNW 6.9 mph - N/A   Clear
12:45 PM 71.6 °F - 46.4 °F 41% 30.00 in 9.0 mi West 4.6 mph - N/A   Clear
1:05 PM 71.6 °F - 44.6 °F 38% 29.99 in 10.0 mi NW 6.9 mph - N/A   Clear
1:25 PM 73.4 °F - 44.6 °F 36% 29.99 in 10.0 mi NW 5.8 mph - N/A   Clear
1:45 PM 75.2 °F - 44.6 °F 34% 29.98 in 10.0 mi NNE 6.9 mph - N/A   Clear
2:05 PM 73.4 °F - 44.6 °F 36% 29.97 in 7.0 mi NNE 3.5 mph - N/A   Clear
2:45 PM 73.4 °F - 42.8 °F 33% 29.97 in 10.0 mi West 5.8 mph - N/A   Clear
3:05 PM 75.2 °F - 42.8 °F 31% 29.97 in 9.0 mi SW 4.6 mph - N/A   Clear
3:25 PM 75.2 °F - 44.6 °F 34% 29.97 in 10.0 mi NW 3.5 mph - N/A   Clear
3:45 PM 75.2 °F - 44.6 °F 34% 29.97 in 10.0 mi North 4.6 mph - N/A   Clear
4:05 PM 75.2 °F - 42.8 °F 31% 29.97 in 10.0 mi Calm Calm - N/A   Clear
4:25 PM 75.2 °F - 42.8 °F 31% 29.97 in 10.0 mi NNE 3.5 mph - N/A   Clear
4:45 PM 75.2 °F - 42.8 °F 31% 29.97 in 10.0 mi North 4.6 mph - N/A   Clear
5:05 PM 73.4 °F - 44.6 °F 36% 29.98 in 10.0 mi Calm Calm - N/A   Clear
5:25 PM 71.6 °F - 44.6 °F 38% 29.98 in 10.0 mi Calm Calm - N/A   Clear
5:45 PM 68.0 °F - 44.6 °F 43% 29.99 in 10.0 mi Calm Calm - N/A   Clear
6:05 PM 66.2 °F - 46.4 °F 49% 29.99 in 10.0 mi Calm Calm - N/A   Clear
6:25 PM 62.6 °F - 46.4 °F 55% 29.99 in 10.0 mi Calm Calm - N/A   Clear
6:45 PM 60.8 °F - 46.4 °F 59% 30.00 in 10.0 mi Calm Calm - N/A   Clear
7:05 PM 57.2 °F - 46.4 °F 67% 30.00 in 10.0 mi Calm Calm - N/A   Clear
7:25 PM 55.4 °F - 46.4 °F 72% 30.00 in 10.0 mi Calm Calm - N/A   Clear
7:45 PM 55.4 °F - 46.4 °F 72% 30.00 in 10.0 mi Calm Calm - N/A   Clear
8:05 PM 55.4 °F - 46.4 °F 72% 30.00 in 10.0 mi Calm Calm - N/A   Clear
8:25 PM 50.0 °F - 46.4 °F 87% 30.01 in 10.0 mi Calm Calm - N/A   Clear
8:45 PM 51.8 °F - 46.4 °F 82% 30.00 in 10.0 mi Calm Calm - N/A   Clear
9:05 PM 50.0 °F - 46.4 °F 87% 30.01 in 5.0 mi Calm Calm - N/A   Haze
9:25 PM 50.0 °F - 46.4 °F 87% 30.01 in 10.0 mi Calm Calm - N/A   Clear
9:45 PM 48.2 °F - 44.6 °F 87% 30.02 in 10.0 mi West 3.5 mph - N/A   Clear
10:05 PM 48.2 °F - 44.6 °F 87% 30.02 in 8.0 mi Calm Calm - N/A   Clear
10:25 PM 48.2 °F - 44.6 °F 87% 30.02 in 10.0 mi Calm Calm - N/A   Clear
10:45 PM 48.2 °F - 44.6 °F 87% 30.02 in 10.0 mi Calm Calm - N/A   Clear
11:05 PM 48.2 °F - 44.6 °F 87% 30.02 in 10.0 mi Calm Calm - N/A   Clear
11:25 PM 46.4 °F - 44.6 °F 93% 30.02 in 10.0 mi Calm Calm - N/A   Clear
11:45 PM 46.4 °F - 44.6 °F 93% 30.02 in 10.0 mi Calm Calm - N/A   Clear